EDT,Max TemperatureF,Mean TemperatureF,Min TemperatureF,Max Dew PointF,MeanDew PointF,Min DewpointF,Max Humidity, Mean Humidity, Min Humidity, Max Sea Level PressureIn, Mean Sea Level PressureIn, Min Sea Level PressureIn, Max VisibilityMiles, Mean VisibilityMiles, Min VisibilityMiles, Max Wind SpeedMPH, Mean Wind SpeedMPH, Max Gust SpeedMPH,PrecipitationIn, CloudCover, Events, WindDirDegrees
2013-4-1,87,73,59,62,58,55,90,64,37,30.04,29.99,29.92,10,10,10,22,10,32,0.00,3,,227
2013-4-2,79,69,59,61,56,47,97,65,33,30.13,30.07,30.01,10,8,2,17,8,22,0.00,2,,360
2013-4-3,80,69,57,66,62,56,100,78,56,30.10,30.06,30.02,10,9,2,15,5,22,0.22,6,Rain,87
2013-4-4,77,72,67,68,65,61,97,81,64,30.05,29.97,29.89,10,9,5,20,6,26,0.05,7,Rain,214
2013-4-5,77,67,57,66,60,51,93,84,75,30.02,29.89,29.82,10,9,2,24,9,31,0.19,8,Rain,313
2013-4-6,72,63,53,59,54,50,93,76,58,30.17,30.09,30.02,10,10,10,23,12,30,0.00,3,,357
2013-4-7,77,66,55,61,57,54,100,73,46,30.21,30.15,30.09,10,9,4,17,5,23,0.00,5,,79
2013-4-8,80,69,57,64,60,56,100,76,52,30.18,30.14,30.10,10,9,5,16,5,21,0.00,2,,86
2013-4-9,81,72,63,65,62,57,100,74,48,30.21,30.16,30.11,10,10,8,15,5,23,0.00,2,,114
2013-4-10,81,72,62,69,64,60,93,77,60,30.16,30.09,30.03,10,10,9,15,5,23,T,4,,116
2013-4-11,84,76,67,70,69,66,100,81,62,30.03,29.96,29.86,10,8,3,17,8,26,0.01,5,Rain,152
2013-4-12,86,79,71,71,69,66,87,73,59,29.92,29.87,29.83,10,8,3,24,11,31,0.00,7,,204
2013-4-13,78,71,63,68,59,49,97,68,38,30.02,29.96,29.90,10,9,2,15,7,20,0.00,6,,27
2013-4-14,80,69,57,72,67,57,97,81,64,30.01,29.94,29.87,10,8,0,8,7,10,1.03,6,Fog-Rain-Thunderstorm,122
2013-4-15,86,76,65,67,63,59,93,70,47,30.12,30.01,29.91,10,10,9,13,6,16,0.00,4,,72
2013-4-16,81,75,68,68,67,64,93,76,58,30.20,30.15,30.09,10,7,1,16,9,21,0.00,3,,37
2013-4-17,81,73,65,69,66,64,100,79,58,30.18,30.14,30.10,10,8,2,17,7,23,0.00,4,,41
2013-4-18,84,75,66,71,67,64,100,78,55,30.10,30.05,30.00,10,10,5,14,5,22,0.00,4,,108
2013-4-19,90,81,72,71,69,64,93,69,44,30.04,29.99,29.91,10,10,4,21,8,29,T,6,Rain,179
2013-4-20,72,65,57,70,58,53,93,80,67,30.18,30.09,29.98,10,10,5,16,7,22,0.03,8,Rain,348
2013-4-21,79,70,61,70,65,57,90,80,69,30.17,30.12,30.07,10,10,6,18,10,22,0.09,7,Rain,23
2013-4-22,77,71,65,67,65,62,100,90,79,30.11,30.07,30.03,10,6,0,22,10,28,0.11,8,Rain,356
2013-4-23,75,66,57,64,60,57,93,76,58,30.15,30.11,30.04,10,10,8,21,11,26,0.00,1,,13
2013-4-24,80,67,53,64,59,52,100,76,52,30.18,30.14,30.11,10,10,6,14,4,21,0.00,3,,92
2013-4-25,85,72,59,64,61,58,100,72,43,30.22,30.18,30.13,10,9,6,14,3,18,0.00,2,,120
2013-4-26,83,73,63,67,65,61,93,76,58,30.27,30.23,30.17,10,10,7,20,8,24,0.01,2,,36
2013-4-27,81,74,66,67,63,59,93,71,49,30.26,30.21,30.17,10,10,9,18,9,25,0.00,4,Rain,67
2013-4-28,80,73,65,65,62,59,87,69,51,30.17,30.10,30.04,10,10,9,15,6,22,0.00,4,,107
2013-4-29,86,74,61,67,63,56,93,65,37,30.05,30.00,29.93,10,9,1,7,6,9,1.30,6,Rain-Thunderstorm,180
2013-4-30,83,74,65,69,66,64,100,79,58,30.04,30.00,29.96,10,9,5,15,4,18,0.01,6,Rain,31